Regional Weather Roundup
Issued by NWS

Home | Current Version | Previous Version | Graphics & Text | Print | Product List | Glossary On
Versions: 1 2 3 4 5 6 7 8 9 10 11 12 13 14 15 16 17 18 19 20 21 22 23 24 25 26 27 28 29 30 31 32 33 34 35 36 37 38 39 40 41 42 43 44 45 46 47 48 49 50
000
ASUS43 KLOT 290906
RWRIL

ILLINOIS REGIONAL WEATHER ROUNDUP
NATIONAL WEATHER SERVICE CHICAGO/ROMEOVILLE IL
300 AM CST MON DEC 29 2014

NOTE: "FAIR" INDICATES FEW OR NO CLOUDS BELOW 12,000 FEET WITH NO
SIGNIFICANT WEATHER AND/OR OBSTRUCTIONS TO VISIBILITY.

* THESE STATIONS ARE NOT UNDER NWS QUALITY CONTROL. THEY ALSO MAY NOT
  REPORT WEATHER SUCH AS PRECIPITATION OR FOG.

ILZ001-002-007-009-015-016-024-291000-
NORTHWEST ILLINOIS

CITY           SKY/WX    TMP DP  RH WIND       PRES   REMARKS
MOLINE         CLOUDY    25  20  81 CALM      30.28R
STERLING*      MOCLDY    27  18  69 NE6       30.28R WCI  20
SAVANNA*       CLOUDY    26  21  82 N5        30.29S WCI  20
$$

ILZ003-004-008-010-011-017-018-291000-
NORTH CENTRAL ILLINOIS

CITY           SKY/WX    TMP DP  RH WIND       PRES   REMARKS
ROCKFORD       CLOUDY    26  19  74 N8        30.30R WCI  18
FREEPORT*      CLOUDY    24  20  86 NE3       30.30R
ROCHELLE*      MOCLDY    24  21  85 NE5       30.28S WCI  19
DE KALB*       MOCLDY    22  18  85 N5        30.27S WCI  16
PERU*          PTCLDY    25  20  82 NE3       30.28S
$$

ILZ005-006-012>014-019>023-291000-
NORTHEAST ILLINOIS

CITY           SKY/WX    TMP DP  RH WIND       PRES   REMARKS
CHICAGO-OHARE  CLOUDY    27  19  72 N6        30.27R WCI  20
CHICAGO-MIDWAY MOCLDY    29  21  72 NW6       30.27S WCI  23
AURORA         MOCLDY    24  17  74 NE6       30.27S WCI  17
LANSING*       PTCLDY    21  18  90 CALM      30.27R
JOLIET*        PTCLDY    21  19  91 CALM      30.27F
WAUKEGAN       CLOUDY    26  19  74 N6        30.27S WCI  19
DUPAGE AIRPORT MOCLDY    20  16  84 N6        30.26R WCI  12
KANKAKEE*      CLEAR     21  18  89 W3        30.28S
WHEELING       CLOUDY    26  19  74 N3        30.29S
MORRIS*        PTCLDY    21  19  93 CALM      30.26F
ROMEOVILLE*    MOCLDY    24  19  83 NW3       30.27S
NORTHERLY ISL    N/A     31  22  69 N8          N/A  WCI  24
$$

LMZ740>746-291000-
SOUTHERN LAKE MICHIGAN

STATION/POSITION SKY/WX   TEMP    WIND        PRES    VSBY  WAVE
                          AIR SEA DIR/SP/G                  HT/PER
                          (F)     (DEG/KT/KT) (MB)    (MI)  (FT/S)
WAUKEGAN HARBOR            28     340/  3/  6   N/A
HARRISON CRIB              31     330/ 10/ 11   N/A
BURNHAM HARBOR             32     350/  6/  8   N/A
CALUMET HARBOR             29     300/  4/  4 1023.4F
MICHIGAN CITY              33     340/ 11/ 13   N/A
$$

ILZ025>027-034>036-040-047-049-050-058-095>099-291000-
WEST-CENTRAL ILLINOIS

CITY           SKY/WX    TMP DP  RH WIND       PRES   REMARKS
QUINCY         FAIR      26  21  81 CALM      30.25R
GALESBURG*     PTCLDY    21  20  94 CALM      30.27R
MACOMB*        PTCLDY    22  21  96 CALM      30.28S
JACKSONVILLE*  CLEAR     23  20  90 CALM      30.26S
PITTSFIELD*    PTCLDY    24  22  92 W3        30.27R
$$

ILZ028>032-037-038-041>044-048-051>054-059>061-291000-
CENTRAL ILLINOIS

CITY           SKY/WX    TMP DP  RH WIND       PRES   REMARKS
PONTIAC        PTCLDY    20  18  91 CALM      30.28S
BLOOMINGTON    PTCLDY    20  19  96 CALM      30.26F
DECATUR        CLEAR     21  18  88 NE3       30.26S
PEORIA         PTCLDY    24  18  77 CALM      30.27S
LACON*         PTCLDY    20  17  88 CALM      30.28R
LINCOLN*       PTCLDY    23  21  93 CALM      30.28S
SPRINGFIELD    PTCLDY    21  18  88 CALM      30.26S
TAYLORVILLE    CLEAR     23  21  93 CALM      30.26S FOG
$$

ILZ033-039-045-046-055>057-062-063-291000-
EAST-CENTRAL ILLINOIS

CITY           SKY/WX    TMP DP  RH WIND       PRES   REMARKS
CHAMPAIGN      CLEAR     20  17  88 NE3       30.26S
DANVILLE*      CLEAR     20  19  96 CALM      30.24S FOG
RANTOUL*       CLEAR     24  18  77 N5        30.25F WCI  18
MATTOON        CLEAR     21  20  96 N3        30.25S
PARIS*         CLEAR     23  22  98 CALM      30.27S
$$

ILZ079-100>102-291000-
SOUTHWEST ILLINOIS

CITY           SKY/WX    TMP DP  RH WIND       PRES   REMARKS
ALTON          CLEAR     25  24  96 CALM      30.26S
BELLEVILLE     CLEAR     22  22  99 CALM      30.26S
CAHOKIA*       CLEAR     25  23  92 CALM      30.26S
SPARTA*        CLEAR     24  23  96 CALM      30.27R
$$

ILZ064>066-069>071-074>076-080>082-084>086-088>090-092>094-291000-
SOUTH-CENTRAL ILLINOIS

CITY           SKY/WX    TMP DP  RH WIND       PRES   REMARKS
CARBONDALE     CLOUDY    29  25  85 CALM      30.25S
CAIRO*         CLOUDY    34  29  81 N7        30.24R WCI  28
EFFINGHAM*     CLEAR     23  20  89 CALM      30.27F
MARION         CLOUDY    30  28  93 N3        30.26R
MT. VERNON     CLEAR     21  16  79 CALM      30.26S
CENTRALIA*     CLEAR     25  24  93 CALM      30.26R FOG
SALEM*         CLEAR     26  24  93 CALM      30.26R FOG
METROPOLIS*    CLOUDY    32  28  86 NE6       30.23R WCI  26
$$

ILZ067-068-072-073-078-083-087-091-291000-
SOUTHEAST ILLINOIS

CITY           SKY/WX    TMP DP  RH WIND       PRES   REMARKS
LAWRENCEVILLE  CLEAR     23  21  92 N3        30.26R
FLORA*         CLEAR     24  24  97 N5        30.26S WCI  18
FAIRFIELD*     CLEAR     25  23  93 CALM      30.25S
HARRISBURG*    MOCLDY    27  26  99 N3        30.27R
ROBINSON*      CLEAR     22  22  98 N3        30.27S
CARMI*         CLOUDY    29  28  96 N5        30.24F WCI  24
$$

ABBREVIATIONS USED IN REMARKS
   TC - TEMPERATURE IN CELSIUS
  WCI - WIND CHILL INDEX
   HX - HEAT INDEX
  VSB - VISIBILITY
$$




USA.gov is the U.S. government's official web portal to all federal, state and local government web resources and services.